This is the latest recevied weather packets stored in our database for station/object SM0PQB-13. If no packets are shown the sender has not sent any weather packets the latest 10 day(s).
| Time | Temp. | Humidity | Pressure | Rain* | Wind** | Luminosity | Snow |
|---|---|---|---|---|---|---|---|
| 1777651152 | 26.67° C | 29% | 1014.6 hPa | - | - | - | - |
| 1777650552 | 26.67° C | 29% | 1014.7 hPa | - | - | - | - |
| 1777649953 | 26.67° C | 29% | 1014.7 hPa | - | - | - | - |
| 1777649352 | 26.67° C | 30% | 1014.8 hPa | - | - | - | - |
| 1777648752 | 26.67° C | 30% | 1014.9 hPa | - | - | - | - |
| 1777648153 | 26.67° C | 30% | 1014.9 hPa | - | - | - | - |
| 1777647552 | 26.67° C | 30% | 1014.9 hPa | - | - | - | - |
| 1777646952 | 26.67° C | 29% | 1015.1 hPa | - | - | - | - |
| 1777646352 | 26.67° C | 29% | 1015.1 hPa | - | - | - | - |
| 1777645753 | 26.67° C | 29% | 1015.2 hPa | - | - | - | - |
| 1777645152 | 26.67° C | 29% | 1015.4 hPa | - | - | - | - |
| 1777644553 | 26.67° C | 29% | 1015.4 hPa | - | - | - | - |
| 1777643952 | 27.22° C | 29% | 1015.6 hPa | - | - | - | - |
| 1777643353 | 26.67° C | 29% | 1015.5 hPa | - | - | - | - |
| 1777642752 | 27.22° C | 29% | 1015.7 hPa | - | - | - | - |
| 1777642152 | 27.22° C | 29% | 1015.8 hPa | - | - | - | - |
| 1777641552 | 27.22° C | 29% | 1015.9 hPa | - | - | - | - |
| 1777640952 | 27.78° C | 28% | 1016.1 hPa | - | - | - | - |
| 1777640352 | 27.78° C | 28% | 1016.2 hPa | - | - | - | - |
| 1777639752 | 28.33° C | 27% | 1016.4 hPa | - | - | - | - |
| 1777639152 | 34.44° C | 20% | 1016.4 hPa | - | - | - | - |
| 1777638552 | 35.56° C | 18% | 1016.5 hPa | - | - | - | - |
| 1777637952 | 35° C | 19% | 1016.7 hPa | - | - | - | - |
| 1777637353 | 35° C | 19% | 1016.8 hPa | - | - | - | - |
| 1777636752 | 35° C | 19% | 1016.8 hPa | - | - | - | - |
* Rain since midnight (hover to see other rain measurements)
** Current wind speed in m/s (hover to see current wind gust speed)